Weather Roundup
Issued by NWS Chicago, IL

Home | Current Version | Previous Version | Text Only | Print | Product List | Glossary Off
Versions: 1 2 3 4 5 6 7 8 9 10 11 12 13 14 15 16 17 18 19 20 21 22 23 24 25 26 27 28 29 30 31 32 33 34 35 36 37 38 39 40 41 42 43 44 45 46 47 48 49 50

000
NZUS59 KLOT 010806
HRRLOT

CHICAGO AREA WEATHER ROUNDUP
NATIONAL WEATHER SERVICE CHICAGO/ROMEOVILLE IL
300 AM CDT FRI AUG 01 2014

NOTE: "FAIR" INDICATES FEW OR NO CLOUDS BELOW 12,000 FEET WITH NO
SIGNIFICANT WEATHER AND/OR OBSTRUCTIONS TO VISIBILITY.

* THESE STATIONS ARE NOT UNDER NWS QUALITY CONTROL. THEY ALSO MAY NOT
  REPORT WEATHER SUCH AS PRECIPITATION OR FOG.

ILZ005-006-012>014-019>023-010900-
NORTHEAST ILLINOIS

CITY           SKY/WX    TMP DP  RH WIND       PRES   REMARKS
OHARE          CLEAR     66  58  75 W6        30.05R
MIDWAY         PTCLDY    70  62  76 SW6       30.05S
AURORA         CLOUDY    60  56  86 CALM      30.07R
LANSING*       MOCLDY    62  60  94 CALM      30.06S
JOLIET*        PTCLDY    60  59  96 CALM      30.07S FOG
WAUKEGAN       PTCLDY    65  57  75 CALM      30.03S
DUPAGE AIRPORT CLEAR     61  59  93 S3        30.06R
WHEELING       CLEAR     65  58  78 CALM      30.06R
KANKAKEE*      CLEAR     61  59  93 CALM      30.07S
MORRIS*        MOCLDY    63  63 100 CALM      30.06S FOG
LEWIS AIRPORT* MOCLDY    62  61  96 SW3       30.07R FOG
NORTHERLY IS     N/A     71  60  68 W5          N/A
$$

WIZ051-052-058>065-066-070>072-010900-
SOUTHEAST WISCONSIN

CITY           SKY/WX    TMP DP  RH WIND       PRES   REMARKS
MILWAUKEE      PTCLDY    67  58  72 SW5       30.03R
KENOSHA*       CLEAR     60  57  89 W5        30.04S
RACINE*        CLEAR     66  57  72 W6        30.05R
BURLINGTON     CLEAR     56  55  95 SW5       30.05R
WAUKESHA       CLEAR     59  55  88 CALM      30.05R
WEST BEND      CLEAR     59  55  88 CALM      30.03R
$$

INZ001>003-010>013-019-020-010900-
NORTHWEST INDIANA

CITY           SKY/WX    TMP DP  RH WIND       PRES   REMARKS
GARY*          PTCLDY    65  62  92 CALM      30.07R
MICHIGAN CITY* NOT AVBL
RENSSELAER*    NOT AVBL
VALPARAISO     CLEAR     62  59  90 SW3       30.07S
$$

LMZ740>746-010900-
SOUTHERN LAKE MICHIGAN

STATION/POSITION TIME  SKY/WX   TEMP WIND        PRES    VSBY
                                AIR  DIR/SP/G
                 (UTC)          (F)  (DEG/KT/KT) (MB)    (MI)
HARRISON CRIB    0800            72  250/  9/ 10   N/A
BURNHAM HARBOR   0800            71  230/  2/  6   N/A
CALUMET HARBOR   0800            69  220/  3/  4 1016.5S
BURNS HARBOR     NOT AVBL
MICHIGAN CITY    0800            68  180/  8/  9   N/A
$$

ABBREVIATIONS USED IN REMARKS
   TC - TEMPERATURE IN CELSIUS
  WCI - WIND CHILL INDEX
   HX - HEAT INDEX
  VSB - VISIBILITY
$$



USA.gov is the U.S. government's official web portal to all federal, state and local government web resources and services.